contact:dominique.lefevre@mio.osupytheas.fr, maurice.libes@osupytheas.fr, didier.mallarino@osupytheas.fr
Project:EMSO http://www.emso-fr.org/EMSO-France
Depth: 2436.0 m
Title:EMSO Ligure Ouest : Data MII capteur MICROCAT
DateTime_Computer,Latitude,Longitude,Temperature,Conductivity,Pressure,DateTime_Instrument
DateTime_Computer,Latitude,Longitude,degC,S m-1,dbar,DateTime_Instrument
2020-04-10T00:01:31Z,42.805,6.029,13.2982,4.60031,2469.993,2020-4-10T02:02:10Z
2020-04-10T00:04:34Z,42.805,6.029,13.2974,4.60007,2470.007,2020-4-10T02:05:13Z
2020-04-10T00:07:38Z,42.805,6.029,13.2982,4.60019,2469.993,2020-4-10T02:08:17Z
2020-04-10T00:10:41Z,42.805,6.029,13.2984,4.60027,2469.984,2020-4-10T02:11:20Z
2020-04-10T00:13:44Z,42.805,6.029,13.2979,4.60023,2469.993,2020-4-10T02:14:23Z
2020-04-10T00:16:47Z,42.805,6.029,13.2984,4.60032,2469.993,2020-4-10T02:17:26Z
2020-04-10T00:19:51Z,42.805,6.029,13.2985,4.60012,2469.97,2020-4-10T02:20:30Z
2020-04-10T00:22:54Z,42.805,6.029,13.2978,4.60033,2470.03,2020-4-10T02:23:33Z
2020-04-10T00:25:57Z,42.805,6.029,13.2986,4.60039,2469.97,2020-4-10T02:26:36Z
2020-04-10T00:29:01Z,42.805,6.029,13.2996,4.60014,2469.947,2020-4-10T02:29:40Z
2020-04-10T00:32:04Z,42.805,6.029,13.2976,4.60011,2469.947,2020-4-10T02:32:43Z
2020-04-10T00:35:07Z,42.805,6.029,13.2994,4.60023,2469.96,2020-4-10T02:35:46Z
2020-04-10T00:38:10Z,42.805,6.029,13.2985,4.60021,2469.96,2020-4-10T02:38:49Z
2020-04-10T00:41:13Z,42.805,6.029,13.2991,4.60014,2469.937,2020-4-10T02:41:53Z
2020-04-10T00:44:17Z,42.805,6.029,13.2991,4.60029,2469.984,2020-4-10T02:44:56Z
2020-04-10T00:47:20Z,42.805,6.029,13.2975,4.60019,2469.947,2020-4-10T02:47:59Z
2020-04-10T00:50:23Z,42.805,6.029,13.2992,4.60023,2469.947,2020-4-10T02:51:02Z
2020-04-10T00:53:26Z,42.805,6.029,13.2986,4.60021,2469.97,2020-4-10T02:54:06Z
2020-04-10T00:56:30Z,42.805,6.029,13.2991,4.60031,2469.984,2020-4-10T02:57:09Z
2020-04-10T00:59:33Z,42.805,6.029,13.2981,4.60017,2469.947,2020-4-10T03:00:12Z
2020-04-10T01:02:36Z,42.805,6.029,13.2989,4.60014,2469.937,2020-4-10T03:03:15Z
2020-04-10T01:05:40Z,42.805,6.029,13.2988,4.60014,2469.923,2020-4-10T03:06:19Z
2020-04-10T01:08:43Z,42.805,6.029,13.2978,4.60016,2469.937,2020-4-10T03:09:22Z
2020-04-10T01:11:46Z,42.805,6.029,13.2990,4.60016,2469.914,2020-4-10T03:12:25Z
2020-04-10T01:14:49Z,42.805,6.029,13.2985,4.60046,2469.937,2020-4-10T03:15:29Z
2020-04-10T01:17:53Z,42.805,6.029,13.2983,4.60014,2469.947,2020-4-10T03:18:32Z
2020-04-10T01:20:56Z,42.805,6.029,13.2987,4.60026,2469.923,2020-4-10T03:21:35Z
2020-04-10T01:23:59Z,42.805,6.029,13.2983,4.60028,2469.96,2020-4-10T03:24:38Z
2020-04-10T01:27:02Z,42.805,6.029,13.3009,4.60026,2469.9,2020-4-10T03:27:42Z
2020-04-10T01:30:06Z,42.805,6.029,13.2991,4.60031,2469.937,2020-4-10T03:30:45Z
2020-04-10T01:33:09Z,42.805,6.029,13.2989,4.60021,2469.9,2020-4-10T03:33:48Z
2020-04-10T01:36:12Z,42.805,6.029,13.2980,4.60019,2469.914,2020-4-10T03:36:51Z
2020-04-10T01:39:16Z,42.805,6.029,13.2990,4.60031,2469.886,2020-4-10T03:39:55Z
2020-04-10T01:42:19Z,42.805,6.029,13.2976,4.60016,2469.9,2020-4-10T03:42:58Z
2020-04-10T01:45:22Z,42.805,6.029,13.2984,4.59999,2469.9,2020-4-10T03:46:01Z
2020-04-10T01:48:25Z,42.805,6.029,13.2979,4.60011,2469.9,2020-4-10T03:49:04Z
2020-04-10T01:51:28Z,42.805,6.029,13.2996,4.60024,2469.9,2020-4-10T03:52:08Z
2020-04-10T01:54:32Z,42.805,6.029,13.2990,4.60026,2469.947,2020-4-10T03:55:11Z
2020-04-10T01:57:35Z,42.805,6.029,13.2983,4.60027,2469.914,2020-4-10T03:58:14Z
2020-04-10T02:00:38Z,42.805,6.029,13.2974,4.60017,2469.947,2020-4-10T04:01:17Z
2020-04-10T02:03:42Z,42.805,6.029,13.2984,4.60015,2469.9,2020-4-10T04:04:21Z
2020-04-10T02:06:45Z,42.805,6.029,13.2995,4.60024,2469.914,2020-4-10T04:07:24Z
2020-04-10T02:09:48Z,42.805,6.029,13.2979,4.60019,2469.9,2020-4-10T04:10:27Z
2020-04-10T02:12:51Z,42.805,6.029,13.2982,4.60017,2469.923,2020-4-10T04:13:31Z
2020-04-10T02:15:55Z,42.805,6.029,13.2983,4.60009,2469.914,2020-4-10T04:16:34Z
2020-04-10T02:18:58Z,42.805,6.029,13.2991,4.60014,2469.9,2020-4-10T04:19:37Z
2020-04-10T02:22:01Z,42.805,6.029,13.2985,4.60035,2469.876,2020-4-10T04:22:40Z
2020-04-10T02:25:04Z,42.805,6.029,13.2982,4.60040,2469.9,2020-4-10T04:25:44Z
2020-04-10T02:28:08Z,42.805,6.029,13.2989,4.60039,2469.937,2020-4-10T04:28:47Z
2020-04-10T02:31:11Z,42.805,6.029,13.2979,4.60027,2469.876,2020-4-10T04:31:50Z
2020-04-10T02:34:14Z,42.805,6.029,13.2982,4.60019,2469.914,2020-4-10T04:34:53Z
2020-04-10T02:37:18Z,42.805,6.029,13.2986,4.60033,2469.876,2020-4-10T04:37:57Z
2020-04-10T02:40:21Z,42.805,6.029,13.2991,4.60012,2469.876,2020-4-10T04:41:00Z
2020-04-10T02:43:24Z,42.805,6.029,13.2979,4.60033,2469.914,2020-4-10T04:44:03Z
2020-04-10T02:46:27Z,42.805,6.029,13.2991,4.60021,2469.853,2020-4-10T04:47:06Z
2020-04-10T02:49:31Z,42.805,6.029,13.2992,4.60031,2469.914,2020-4-10T04:50:10Z
2020-04-10T02:52:34Z,42.805,6.029,13.2980,4.60003,2469.89,2020-4-10T04:53:13Z
2020-04-10T02:55:37Z,42.805,6.029,13.2985,4.59996,2469.867,2020-4-10T04:56:17Z
2020-04-10T02:58:41Z,42.805,6.029,13.2976,4.60008,2469.9,2020-4-10T04:59:20Z
2020-04-10T03:01:44Z,42.805,6.029,13.2976,4.60023,2469.89,2020-4-10T05:02:23Z
2020-04-10T03:04:47Z,42.805,6.029,13.2979,4.60025,2469.876,2020-4-10T05:05:27Z
2020-04-10T03:07:51Z,42.805,6.029,13.2983,4.60004,2469.867,2020-4-10T05:08:30Z
2020-04-10T03:10:54Z,42.805,6.029,13.2978,4.60031,2469.853,2020-4-10T05:11:33Z
2020-04-10T03:13:57Z,42.805,6.029,13.2982,4.60036,2469.853,2020-4-10T05:14:36Z
2020-04-10T03:17:00Z,42.805,6.029,13.2982,4.60032,2469.9,2020-4-10T05:17:40Z
2020-04-10T03:20:04Z,42.805,6.029,13.2986,4.60023,2469.89,2020-4-10T05:20:43Z
2020-04-10T03:23:07Z,42.805,6.029,13.2983,4.60024,2469.9,2020-4-10T05:23:46Z
2020-04-10T03:26:10Z,42.805,6.029,13.2984,4.59998,2469.914,2020-4-10T05:26:49Z
2020-04-10T03:29:13Z,42.805,6.029,13.2982,4.60005,2469.853,2020-4-10T05:29:53Z
2020-04-10T03:32:17Z,42.805,6.029,13.2987,4.60016,2469.876,2020-4-10T05:32:56Z
2020-04-10T03:35:20Z,42.805,6.029,13.2990,4.60009,2469.914,2020-4-10T05:35:59Z
2020-04-10T03:38:23Z,42.805,6.029,13.2987,4.60012,2469.876,2020-4-10T05:39:02Z
2020-04-10T03:41:27Z,42.805,6.029,13.2986,4.60011,2469.904,2020-4-10T05:42:06Z
2020-04-10T03:44:30Z,42.805,6.029,13.2978,4.60019,2469.9,2020-4-10T05:45:09Z
2020-04-10T03:47:33Z,42.805,6.029,13.2981,4.60019,2469.9,2020-4-10T05:48:12Z
2020-04-10T03:50:36Z,42.805,6.029,13.2980,4.60017,2469.863,2020-4-10T05:51:15Z
2020-04-10T03:53:39Z,42.805,6.029,13.2982,4.60018,2469.876,2020-4-10T05:54:19Z
2020-04-10T03:56:43Z,42.805,6.029,13.2978,4.59999,2469.89,2020-4-10T05:57:22Z
2020-04-10T03:59:46Z,42.805,6.029,13.3004,4.60019,2469.9,2020-4-10T06:00:25Z
2020-04-10T04:02:49Z,42.805,6.029,13.2975,4.59998,2469.923,2020-4-10T06:03:29Z
2020-04-10T04:05:53Z,42.805,6.029,13.2981,4.60025,2469.914,2020-4-10T06:06:32Z
2020-04-10T04:08:56Z,42.805,6.029,13.2986,4.60015,2469.876,2020-4-10T06:09:35Z
2020-04-10T04:11:59Z,42.805,6.029,13.2978,4.60007,2469.923,2020-4-10T06:12:38Z
2020-04-10T04:15:02Z,42.805,6.029,13.2977,4.60024,2469.853,2020-4-10T06:15:42Z
2020-04-10T04:18:06Z,42.805,6.029,13.2986,4.60012,2469.9,2020-4-10T06:18:45Z
2020-04-10T04:21:09Z,42.805,6.029,13.2988,4.60029,2469.923,2020-4-10T06:21:48Z
2020-04-10T04:24:12Z,42.805,6.029,13.2988,4.60023,2469.9,2020-4-10T06:24:51Z
2020-04-10T04:27:15Z,42.805,6.029,13.2982,4.60019,2469.923,2020-4-10T06:27:55Z
2020-04-10T04:30:19Z,42.805,6.029,13.2983,4.60006,2469.923,2020-4-10T06:30:58Z
2020-04-10T04:33:22Z,42.805,6.029,13.2986,4.60007,2469.923,2020-4-10T06:34:01Z
2020-04-10T04:36:25Z,42.805,6.029,13.2993,4.59999,2469.937,2020-4-10T06:37:04Z
2020-04-10T04:39:28Z,42.805,6.029,13.2996,4.60017,2469.923,2020-4-10T06:40:07Z
2020-04-10T04:42:31Z,42.805,6.029,13.2990,4.60003,2469.914,2020-4-10T06:43:11Z
2020-04-10T04:45:35Z,42.805,6.029,13.2976,4.60006,2469.947,2020-4-10T06:46:14Z
2020-04-10T04:48:38Z,42.805,6.029,13.2979,4.60003,2469.937,2020-4-10T06:49:17Z
2020-04-10T04:51:41Z,42.805,6.029,13.2977,4.59994,2469.923,2020-4-10T06:52:21Z
2020-04-10T04:54:45Z,42.805,6.029,13.2979,4.60019,2469.937,2020-4-10T06:55:24Z
2020-04-10T04:57:48Z,42.805,6.029,13.2985,4.60016,2469.923,2020-4-10T06:58:27Z
2020-04-10T05:00:51Z,42.805,6.029,13.2987,4.59986,2469.923,2020-4-10T07:01:30Z
2020-04-10T05:03:54Z,42.805,6.029,13.2976,4.60016,2469.914,2020-4-10T07:04:34Z
2020-04-10T05:06:58Z,42.805,6.029,13.2984,4.60001,2470.007,2020-4-10T07:07:37Z
2020-04-10T05:10:01Z,42.805,6.029,13.2974,4.59986,2469.947,2020-4-10T07:10:40Z
2020-04-10T05:13:04Z,42.805,6.029,13.2990,4.60024,2469.947,2020-4-10T07:13:43Z
2020-04-10T05:16:08Z,42.805,6.029,13.2976,4.60001,2469.984,2020-4-10T07:16:47Z
2020-04-10T05:19:11Z,42.805,6.029,13.2976,4.60011,2469.97,2020-4-10T07:19:50Z
2020-04-10T05:22:14Z,42.805,6.029,13.2982,4.59993,2469.984,2020-4-10T07:22:53Z
2020-04-10T05:25:17Z,42.805,6.029,13.2975,4.60010,2469.96,2020-4-10T07:25:56Z
2020-04-10T05:28:21Z,42.805,6.029,13.2983,4.59999,2469.97,2020-4-10T07:29:00Z
2020-04-10T05:31:24Z,42.805,6.029,13.2981,4.60009,2470.007,2020-4-10T07:32:03Z
2020-04-10T05:34:27Z,42.805,6.029,13.2982,4.59999,2469.993,2020-4-10T07:35:06Z
2020-04-10T05:37:30Z,42.805,6.029,13.2991,4.60009,2469.984,2020-4-10T07:38:09Z
2020-04-10T05:40:34Z,42.805,6.029,13.2979,4.60009,2469.984,2020-4-10T07:41:13Z
2020-04-10T05:43:37Z,42.805,6.029,13.2982,4.60006,2469.993,2020-4-10T07:44:16Z
2020-04-10T05:46:40Z,42.805,6.029,13.2979,4.59994,2469.97,2020-4-10T07:47:19Z
2020-04-10T05:49:43Z,42.805,6.029,13.2985,4.60003,2470.007,2020-4-10T07:50:23Z
2020-04-10T05:52:47Z,42.805,6.029,13.2984,4.60011,2469.97,2020-4-10T07:53:26Z
2020-04-10T05:55:50Z,42.805,6.029,13.2990,4.60015,2470.007,2020-4-10T07:56:29Z
2020-04-10T05:58:53Z,42.805,6.029,13.2978,4.59999,2470.017,2020-4-10T07:59:32Z
2020-04-10T06:01:56Z,42.805,6.029,13.2983,4.60011,2470.017,2020-4-10T08:02:35Z
2020-04-10T06:05:00Z,42.805,6.029,13.2978,4.60002,2470.04,2020-4-10T08:05:39Z
2020-04-10T06:08:03Z,42.805,6.029,13.2987,4.60019,2470.017,2020-4-10T08:08:42Z
2020-04-10T06:11:06Z,42.805,6.029,13.2986,4.60010,2470.053,2020-4-10T08:11:45Z
2020-04-10T06:14:09Z,42.805,6.029,13.2990,4.60010,2470.04,2020-4-10T08:14:48Z
2020-04-10T06:17:12Z,42.805,6.029,13.2985,4.60006,2470.017,2020-4-10T08:17:52Z
2020-04-10T06:20:16Z,42.805,6.029,13.2987,4.60019,2470.077,2020-4-10T08:20:55Z
2020-04-10T06:23:19Z,42.805,6.029,13.2989,4.60014,2470.053,2020-4-10T08:23:58Z
2020-04-10T06:26:22Z,42.805,6.029,13.2979,4.59998,2470.053,2020-4-10T08:27:01Z
2020-04-10T06:29:25Z,42.805,6.029,13.2974,4.60007,2470.03,2020-4-10T08:30:05Z
2020-04-10T06:32:29Z,42.805,6.029,13.2987,4.60010,2470.053,2020-4-10T08:33:08Z
2020-04-10T06:35:32Z,42.805,6.029,13.2985,4.60007,2470.053,2020-4-10T08:36:11Z
2020-04-10T06:38:35Z,42.805,6.029,13.2981,4.60003,2470.087,2020-4-10T08:39:14Z
2020-04-10T06:41:38Z,42.805,6.029,13.2979,4.60011,2470.04,2020-4-10T08:42:17Z
2020-04-10T06:44:41Z,42.805,6.029,13.2990,4.60031,2470.1,2020-4-10T08:45:21Z
2020-04-10T06:47:45Z,42.805,6.029,13.2979,4.60011,2470.077,2020-4-10T08:48:24Z
2020-04-10T06:50:48Z,42.805,6.029,13.2982,4.60016,2470.087,2020-4-10T08:51:27Z
2020-04-10T06:53:51Z,42.805,6.029,13.2984,4.60005,2470.124,2020-4-10T08:54:30Z
2020-04-10T06:56:55Z,42.805,6.029,13.2976,4.60014,2470.04,2020-4-10T08:57:34Z
2020-04-10T06:59:58Z,42.805,6.029,13.2987,4.60011,2470.063,2020-4-10T09:00:37Z
2020-04-10T07:03:01Z,42.805,6.029,13.2993,4.60035,2470.063,2020-4-10T09:03:40Z
2020-04-10T07:06:04Z,42.805,6.029,13.2986,4.60024,2470.1,2020-4-10T09:06:44Z
2020-04-10T07:09:08Z,42.805,6.029,13.2995,4.60025,2470.1,2020-4-10T09:09:47Z
2020-04-10T07:12:11Z,42.805,6.029,13.2991,4.60046,2470.1,2020-4-10T09:12:50Z
2020-04-10T07:15:14Z,42.805,6.029,13.2995,4.60036,2470.087,2020-4-10T09:15:53Z
2020-04-10T07:18:17Z,42.805,6.029,13.2988,4.60017,2470.087,2020-4-10T09:18:56Z
2020-04-10T07:21:21Z,42.805,6.029,13.2982,4.60036,2470.087,2020-4-10T09:22:00Z
2020-04-10T07:24:24Z,42.805,6.029,13.3011,4.60012,2470.063,2020-4-10T09:25:03Z
2020-04-10T07:27:27Z,42.805,6.029,13.2992,4.60039,2470.087,2020-4-10T09:28:06Z
2020-04-10T07:30:30Z,42.805,6.029,13.2982,4.60039,2470.063,2020-4-10T09:31:10Z
2020-04-10T07:33:34Z,42.805,6.029,13.2984,4.60020,2470.147,2020-4-10T09:34:13Z
2020-04-10T07:36:37Z,42.805,6.029,13.2991,4.60021,2470.1,2020-4-10T09:37:16Z
2020-04-10T07:39:40Z,42.805,6.029,13.2986,4.60046,2470.087,2020-4-10T09:40:19Z
2020-04-10T07:42:43Z,42.805,6.029,13.2984,4.60021,2470.133,2020-4-10T09:43:22Z
2020-04-10T07:45:47Z,42.805,6.029,13.2986,4.60026,2470.11,2020-4-10T09:46:26Z
2020-04-10T07:48:50Z,42.805,6.029,13.2991,4.60035,2470.11,2020-4-10T09:49:29Z
2020-04-10T07:51:53Z,42.805,6.029,13.2986,4.60024,2470.147,2020-4-10T09:52:32Z
2020-04-10T07:54:56Z,42.805,6.029,13.2982,4.60017,2470.11,2020-4-10T09:55:35Z
2020-04-10T07:57:59Z,42.805,6.029,13.2987,4.60033,2470.11,2020-4-10T09:58:39Z
2020-04-10T08:01:03Z,42.805,6.029,13.2992,4.60052,2470.147,2020-4-10T10:01:42Z
2020-04-10T08:04:06Z,42.805,6.029,13.2994,4.60042,2470.1,2020-4-10T10:04:45Z
2020-04-10T08:07:09Z,42.805,6.029,13.2983,4.60022,2470.087,2020-4-10T10:07:49Z
2020-04-10T08:10:13Z,42.805,6.029,13.2996,4.60047,2470.1,2020-4-10T10:10:52Z
2020-04-10T08:13:16Z,42.805,6.029,13.2993,4.60036,2470.133,2020-4-10T10:13:55Z
2020-04-10T08:16:19Z,42.805,6.029,13.2982,4.60022,2470.11,2020-4-10T10:16:58Z
2020-04-10T08:19:22Z,42.805,6.029,13.2987,4.60031,2470.147,2020-4-10T10:20:01Z
2020-04-10T08:22:26Z,42.805,6.029,13.2978,4.60014,2470.11,2020-4-10T10:23:05Z
2020-04-10T08:25:29Z,42.805,6.029,13.3000,4.60038,2470.11,2020-4-10T10:26:08Z
2020-04-10T08:28:32Z,42.805,6.029,13.2992,4.60033,2470.133,2020-4-10T10:29:11Z
2020-04-10T08:31:35Z,42.805,6.029,13.2985,4.60036,2470.124,2020-4-10T10:32:14Z
2020-04-10T08:34:39Z,42.805,6.029,13.2989,4.60024,2470.156,2020-4-10T10:35:18Z
2020-04-10T08:37:42Z,42.805,6.029,13.2979,4.60030,2470.147,2020-4-10T10:38:21Z
2020-04-10T08:40:45Z,42.805,6.029,13.2988,4.60015,2470.1,2020-4-10T10:41:24Z
2020-04-10T08:43:48Z,42.805,6.029,13.2990,4.60020,2470.156,2020-4-10T10:44:28Z
2020-04-10T08:46:52Z,42.805,6.029,13.2985,4.60031,2470.063,2020-4-10T10:47:31Z
2020-04-10T08:49:55Z,42.805,6.029,13.2977,4.60031,2470.11,2020-4-10T10:50:34Z
2020-04-10T08:52:58Z,42.805,6.029,13.2982,4.60037,2470.11,2020-4-10T10:53:37Z
2020-04-10T08:56:01Z,42.805,6.029,13.2976,4.60018,2470.124,2020-4-10T10:56:41Z
2020-04-10T08:59:05Z,42.805,6.029,13.2997,4.60024,2470.11,2020-4-10T10:59:44Z
2020-04-10T09:02:08Z,42.805,6.029,13.2988,4.60040,2470.124,2020-4-10T11:02:47Z
2020-04-10T09:05:11Z,42.805,6.029,13.3004,4.60039,2470.124,2020-4-10T11:05:51Z
2020-04-10T09:08:15Z,42.805,6.029,13.2974,4.59995,2470.124,2020-4-10T11:08:54Z
2020-04-10T09:11:18Z,42.805,6.029,13.2992,4.60011,2470.133,2020-4-10T11:11:57Z
2020-04-10T09:14:21Z,42.805,6.029,13.2974,4.60001,2470.124,2020-4-10T11:15:00Z
2020-04-10T09:17:24Z,42.805,6.029,13.2979,4.60013,2470.124,2020-4-10T11:18:04Z
2020-04-10T09:20:28Z,42.805,6.029,13.2982,4.60003,2470.11,2020-4-10T11:21:07Z
2020-04-10T09:23:31Z,42.805,6.029,13.2990,4.60016,2470.124,2020-4-10T11:24:10Z
2020-04-10T09:26:34Z,42.805,6.029,13.2990,4.60019,2470.087,2020-4-10T11:27:13Z
2020-04-10T09:29:38Z,42.805,6.029,13.2978,4.60001,2470.1,2020-4-10T11:30:17Z
2020-04-10T09:32:41Z,42.805,6.029,13.2985,4.60007,2470.087,2020-4-10T11:33:20Z
2020-04-10T09:35:44Z,42.805,6.029,13.2979,4.60008,2470.1,2020-4-10T11:36:23Z
2020-04-10T09:38:47Z,42.805,6.029,13.2976,4.60011,2470.11,2020-4-10T11:39:27Z
2020-04-10T09:41:51Z,42.805,6.029,13.2979,4.60006,2470.1,2020-4-10T11:42:30Z
2020-04-10T09:44:54Z,42.805,6.029,13.2983,4.60014,2470.1,2020-4-10T11:45:33Z
2020-04-10T09:47:57Z,42.805,6.029,13.2983,4.60011,2470.087,2020-4-10T11:48:36Z
2020-04-10T09:51:00Z,42.805,6.029,13.2983,4.60002,2470.077,2020-4-10T11:51:40Z
2020-04-10T09:54:04Z,42.805,6.029,13.2979,4.60009,2470.087,2020-4-10T11:54:43Z
2020-04-10T09:57:07Z,42.805,6.029,13.2982,4.60011,2470.087,2020-4-10T11:57:46Z
2020-04-10T10:00:10Z,42.805,6.029,13.2979,4.60016,2470.087,2020-4-10T12:00:50Z
2020-04-10T10:03:14Z,42.805,6.029,13.2974,4.60000,2470.077,2020-4-10T12:03:53Z
2020-04-10T10:06:17Z,42.805,6.029,13.2986,4.60011,2470.077,2020-4-10T12:06:56Z
2020-04-10T10:09:20Z,42.805,6.029,13.2982,4.60002,2470.063,2020-4-10T12:09:59Z
2020-04-10T10:12:23Z,42.805,6.029,13.2981,4.60002,2470.077,2020-4-10T12:13:03Z
2020-04-10T10:15:27Z,42.805,6.029,13.2985,4.60004,2470.1,2020-4-10T12:16:06Z
2020-04-10T10:18:30Z,42.805,6.029,13.2982,4.60021,2470.063,2020-4-10T12:19:09Z
2020-04-10T10:21:33Z,42.805,6.029,13.2983,4.60027,2470.077,2020-4-10T12:22:12Z
2020-04-10T10:24:36Z,42.805,6.029,13.2980,4.60006,2470.063,2020-4-10T12:25:16Z
2020-04-10T10:27:40Z,42.805,6.029,13.2990,4.60030,2470.053,2020-4-10T12:28:19Z
2020-04-10T10:30:43Z,42.805,6.029,13.2979,4.60019,2470.063,2020-4-10T12:31:22Z
2020-04-10T10:33:47Z,42.805,6.029,13.2980,4.60009,2470.063,2020-4-10T12:34:26Z
2020-04-10T10:36:50Z,42.805,6.029,13.2982,4.60011,2470.04,2020-4-10T12:37:29Z
2020-04-10T10:39:53Z,42.805,6.029,13.2996,4.60016,2470.017,2020-4-10T12:40:32Z
2020-04-10T10:42:56Z,42.805,6.029,13.2981,4.60014,2470.11,2020-4-10T12:43:36Z
2020-04-10T10:46:00Z,42.805,6.029,13.2984,4.60011,2470.077,2020-4-10T12:46:39Z
2020-04-10T10:49:03Z,42.805,6.029,13.2990,4.60009,2470.077,2020-4-10T12:49:42Z
2020-04-10T10:52:06Z,42.805,6.029,13.2979,4.60018,2470.04,2020-4-10T12:52:45Z
2020-04-10T10:55:09Z,42.805,6.029,13.2982,4.60019,2470.063,2020-4-10T12:55:49Z
2020-04-10T10:58:13Z,42.805,6.029,13.2974,4.60016,2470.063,2020-4-10T12:58:52Z
2020-04-10T11:01:16Z,42.805,6.029,13.2983,4.60016,2470.017,2020-4-10T13:01:55Z
2020-04-10T11:04:19Z,42.805,6.029,13.2984,4.60000,2470.04,2020-4-10T13:04:59Z
2020-04-10T11:07:23Z,42.805,6.029,13.2983,4.60007,2470.04,2020-4-10T13:08:02Z
2020-04-10T11:10:26Z,42.805,6.029,13.2977,4.60021,2470.03,2020-4-10T13:11:05Z
2020-04-10T11:13:29Z,42.805,6.029,13.2982,4.60014,2470.017,2020-4-10T13:14:09Z
2020-04-10T11:16:33Z,42.805,6.029,13.2986,4.60005,2470.053,2020-4-10T13:17:12Z
2020-04-10T11:19:36Z,42.805,6.029,13.2976,4.60011,2469.993,2020-4-10T13:20:15Z
2020-04-10T11:22:39Z,42.805,6.029,13.2979,4.59999,2470.04,2020-4-10T13:23:18Z
2020-04-10T11:25:42Z,42.805,6.029,13.2985,4.60025,2470.04,2020-4-10T13:26:22Z
2020-04-10T11:28:46Z,42.805,6.029,13.2992,4.60016,2469.97,2020-4-10T13:29:25Z
2020-04-10T11:31:49Z,42.805,6.029,13.2980,4.60014,2470.017,2020-4-10T13:32:28Z
2020-04-10T11:34:52Z,42.805,6.029,13.2978,4.60014,2470.017,2020-4-10T13:35:31Z
2020-04-10T11:37:55Z,42.805,6.029,13.2987,4.60034,2469.993,2020-4-10T13:38:35Z
2020-04-10T11:40:59Z,42.805,6.029,13.2981,4.60022,2469.993,2020-4-10T13:41:38Z
2020-04-10T11:44:02Z,42.805,6.029,13.2982,4.60016,2469.993,2020-4-10T13:44:41Z
2020-04-10T11:47:05Z,42.805,6.029,13.2985,4.60030,2469.97,2020-4-10T13:47:44Z
2020-04-10T11:50:08Z,42.805,6.029,13.2986,4.60031,2470.03,2020-4-10T13:50:48Z
2020-04-10T11:53:12Z,42.805,6.029,13.2986,4.60033,2469.993,2020-4-10T13:53:51Z
2020-04-10T11:56:15Z,42.805,6.029,13.2996,4.60039,2469.984,2020-4-10T13:56:54Z
2020-04-10T11:59:18Z,42.805,6.029,13.2978,4.60022,2469.993,2020-4-10T13:59:57Z
2020-04-10T12:02:22Z,42.805,6.029,13.2986,4.60029,2470.007,2020-4-10T14:03:01Z
2020-04-10T12:05:25Z,42.805,6.029,13.2988,4.60016,2469.984,2020-4-10T14:06:04Z
2020-04-10T12:08:28Z,42.805,6.029,13.2979,4.60016,2469.97,2020-4-10T14:09:07Z
2020-04-10T12:11:31Z,42.805,6.029,13.2982,4.60006,2469.993,2020-4-10T14:12:10Z
2020-04-10T12:14:35Z,42.805,6.029,13.2986,4.60026,2469.984,2020-4-10T14:15:14Z
2020-04-10T12:17:38Z,42.805,6.029,13.2983,4.60033,2469.97,2020-4-10T14:18:17Z
2020-04-10T12:20:41Z,42.805,6.029,13.2979,4.60000,2470.007,2020-4-10T14:21:20Z
2020-04-10T12:23:44Z,42.805,6.029,13.2988,4.60010,2469.947,2020-4-10T14:24:23Z
2020-04-10T12:26:47Z,42.805,6.029,13.2981,4.60019,2469.96,2020-4-10T14:27:27Z
2020-04-10T12:29:51Z,42.805,6.029,13.2979,4.60011,2469.984,2020-4-10T14:30:30Z
2020-04-10T12:32:54Z,42.805,6.029,13.2983,4.60003,2469.984,2020-4-10T14:33:33Z
2020-04-10T12:35:57Z,42.805,6.029,13.2988,4.60021,2469.97,2020-4-10T14:36:36Z
2020-04-10T12:39:00Z,42.805,6.029,13.2986,4.60003,2469.923,2020-4-10T14:39:39Z
2020-04-10T12:42:04Z,42.805,6.029,13.2980,4.59998,2469.923,2020-4-10T14:42:43Z
2020-04-10T12:45:07Z,42.805,6.029,13.2986,4.59994,2469.947,2020-4-10T14:45:46Z
2020-04-10T12:48:10Z,42.805,6.029,13.3004,4.60012,2469.97,2020-4-10T14:48:49Z
2020-04-10T12:51:13Z,42.805,6.029,13.2979,4.59998,2469.947,2020-4-10T14:51:52Z
2020-04-10T12:54:17Z,42.805,6.029,13.2984,4.59999,2469.947,2020-4-10T14:54:56Z
2020-04-10T12:57:20Z,42.805,6.029,13.2992,4.60011,2469.96,2020-4-10T14:57:59Z
2020-04-10T13:00:23Z,42.805,6.029,13.2981,4.60013,2469.914,2020-4-10T15:01:03Z
2020-04-10T13:03:27Z,42.805,6.029,13.2988,4.60007,2469.937,2020-4-10T15:04:06Z
2020-04-10T13:06:30Z,42.805,6.029,13.2989,4.60022,2469.947,2020-4-10T15:07:09Z
2020-04-10T13:09:33Z,42.805,6.029,13.2974,4.59999,2469.923,2020-4-10T15:10:12Z
2020-04-10T13:12:36Z,42.805,6.029,13.2979,4.59995,2469.96,2020-4-10T15:13:15Z
2020-04-10T13:15:39Z,42.805,6.029,13.2990,4.59997,2469.914,2020-4-10T15:16:19Z
2020-04-10T13:18:43Z,42.805,6.029,13.2983,4.59996,2469.937,2020-4-10T15:19:22Z
2020-04-10T13:21:46Z,42.805,6.029,13.2983,4.59996,2469.96,2020-4-10T15:22:25Z
2020-04-10T13:24:49Z,42.805,6.029,13.2990,4.59989,2469.923,2020-4-10T15:25:28Z
2020-04-10T13:27:52Z,42.805,6.029,13.2982,4.60011,2469.914,2020-4-10T15:28:32Z
2020-04-10T13:30:56Z,42.805,6.029,13.2987,4.59999,2469.923,2020-4-10T15:31:35Z
2020-04-10T13:33:59Z,42.805,6.029,13.2993,4.60002,2469.9,2020-4-10T15:34:38Z
2020-04-10T13:37:02Z,42.805,6.029,13.3002,4.60025,2469.914,2020-4-10T15:37:41Z
2020-04-10T13:40:05Z,42.805,6.029,13.2996,4.60036,2469.914,2020-4-10T15:40:45Z
2020-04-10T13:43:09Z,42.805,6.029,13.2986,4.60002,2469.923,2020-4-10T15:43:48Z
2020-04-10T13:46:12Z,42.805,6.029,13.2983,4.60003,2469.923,2020-4-10T15:46:51Z
2020-04-10T13:49:15Z,42.805,6.029,13.2980,4.60003,2469.9,2020-4-10T15:49:54Z
2020-04-10T13:52:19Z,42.805,6.029,13.2986,4.59997,2469.937,2020-4-10T15:52:58Z
2020-04-10T13:55:22Z,42.805,6.029,13.2987,4.60019,2469.923,2020-4-10T15:56:01Z
2020-04-10T13:58:25Z,42.805,6.029,13.2981,4.60004,2469.89,2020-4-10T15:59:04Z
2020-04-10T14:01:28Z,42.805,6.029,13.2984,4.59999,2469.937,2020-4-10T16:02:07Z
2020-04-10T14:04:31Z,42.805,6.029,13.2990,4.60009,2469.89,2020-4-10T16:05:11Z
2020-04-10T14:07:35Z,42.805,6.029,13.2983,4.60001,2469.89,2020-4-10T16:08:14Z
2020-04-10T14:10:38Z,42.805,6.029,13.2982,4.59994,2469.914,2020-4-10T16:11:17Z
2020-04-10T14:13:41Z,42.805,6.029,13.2976,4.59989,2469.876,2020-4-10T16:14:20Z
2020-04-10T14:16:44Z,42.805,6.029,13.2981,4.59994,2469.9,2020-4-10T16:17:24Z
2020-04-10T14:19:48Z,42.805,6.029,13.2983,4.59996,2469.89,2020-4-10T16:20:27Z
2020-04-10T14:22:51Z,42.805,6.029,13.2982,4.59994,2469.89,2020-4-10T16:23:30Z
2020-04-10T14:25:54Z,42.805,6.029,13.2986,4.59995,2469.937,2020-4-10T16:26:33Z
2020-04-10T14:28:57Z,42.805,6.029,13.2985,4.60009,2469.923,2020-4-10T16:29:36Z
2020-04-10T14:32:00Z,42.805,6.029,13.2986,4.60000,2469.89,2020-4-10T16:32:40Z
2020-04-10T14:35:04Z,42.805,6.029,13.2987,4.60003,2469.914,2020-4-10T16:35:43Z
2020-04-10T14:38:07Z,42.805,6.029,13.2979,4.59997,2469.89,2020-4-10T16:38:46Z
2020-04-10T14:41:10Z,42.805,6.029,13.2978,4.59990,2469.89,2020-4-10T16:41:49Z
2020-04-10T14:44:13Z,42.805,6.029,13.2988,4.60007,2469.89,2020-4-10T16:44:52Z
2020-04-10T14:47:16Z,42.805,6.029,13.2984,4.60014,2469.89,2020-4-10T16:47:56Z
2020-04-10T14:50:20Z,42.805,6.029,13.2979,4.60000,2469.876,2020-4-10T16:50:59Z
2020-04-10T14:53:23Z,42.805,6.029,13.2986,4.60009,2469.876,2020-4-10T16:54:02Z
2020-04-10T14:56:26Z,42.805,6.029,13.2987,4.60003,2469.867,2020-4-10T16:57:05Z
2020-04-10T14:59:29Z,42.805,6.029,13.2982,4.60011,2469.876,2020-4-10T17:00:09Z
2020-04-10T15:02:33Z,42.805,6.029,13.2987,4.60009,2469.844,2020-4-10T17:03:12Z
2020-04-10T15:05:36Z,42.805,6.029,13.2983,4.60006,2469.876,2020-4-10T17:06:15Z
2020-04-10T15:08:39Z,42.805,6.029,13.2990,4.60014,2469.876,2020-4-10T17:09:18Z
2020-04-10T15:11:42Z,42.805,6.029,13.2985,4.60011,2469.853,2020-4-10T17:12:21Z
2020-04-10T15:14:45Z,42.805,6.029,13.2981,4.59997,2469.853,2020-4-10T17:15:25Z